This is the latest recevied weather packets stored in our database for station/object WD7OO. If no packets are shown the sender has not sent any weather packets the latest 10 day(s).
| Time | Temp. | Humidity | Pressure | Rain* | Wind** | Luminosity | Snow |
|---|---|---|---|---|---|---|---|
| 1778056587 | 5.56° C | 79% | 1010.8 hPa | 0 mm | - | 0 W/m² | - |
| 1778056285 | 5.56° C | 80% | 1010.8 hPa | 0 mm | - | 0 W/m² | - |
| 1778055981 | 5.56° C | 79% | 1010.5 hPa | 0 mm | - | 0 W/m² | - |
| 1778055677 | 5.56° C | 80% | 1010.4 hPa | 0 mm | - | 0 W/m² | - |
| 1778055375 | 6.11° C | 78% | 1010.5 hPa | 0 mm | - | 0 W/m² | - |
| 1778055073 | 6.11° C | 77% | 1010.5 hPa | 0 mm | - | 0 W/m² | - |
| 1778054770 | 6.67° C | 77% | 1010.4 hPa | 0 mm | - | 0 W/m² | - |
| 1778054467 | 6.67° C | 77% | 1010.3 hPa | 0 mm | - | 0 W/m² | - |
| 1778054164 | 7.22° C | 76% | 1010.3 hPa | 0 mm | - | 0 W/m² | - |
| 1778053861 | 7.22° C | 75% | 1010.4 hPa | 0 mm | - | 0 W/m² | - |
| 1778053559 | 7.22° C | 75% | 1010.4 hPa | 0 mm | - | 0 W/m² | - |
| 1778053255 | 7.78° C | 75% | 1010.3 hPa | 0 mm | - | 0 W/m² | - |
| 1778052953 | 7.78° C | 75% | 1010.3 hPa | 0 mm | - | 0 W/m² | - |
| 1778052650 | 7.22° C | 76% | 1010 hPa | 0 mm | - | 0 W/m² | - |
| 1778052347 | 7.22° C | 79% | 1010.5 hPa | 0 mm | - | 0 W/m² | - |
| 1778052045 | 7.22° C | 82% | 1010.5 hPa | 0 mm | - | 0 W/m² | - |
| 1778051743 | 7.22° C | 86% | 1010.3 hPa | 0 mm | - | 0 W/m² | - |
| 1778051440 | 7.22° C | 88% | 1010.3 hPa | 0 mm | - | 0 W/m² | - |
| 1778051137 | 7.22° C | 90% | 1010.3 hPa | 0 mm | - | 0 W/m² | - |
| 1778050834 | 7.22° C | 90% | 1010.3 hPa | 0 mm | - | 0 W/m² | - |
| 1778050532 | 7.78° C | 90% | 1010.3 hPa | 0 mm | - | 0 W/m² | - |
| 1778050228 | 7.78° C | 90% | 1010.3 hPa | 0 mm | - | 0 W/m² | - |
| 1778049925 | 7.78° C | 90% | 1010.5 hPa | 0 mm | - | 0 W/m² | - |
| 1778049621 | 7.78° C | 90% | 1010.4 hPa | 0 mm | - | 0 W/m² | - |
| 1778049319 | 7.78° C | 90% | 1010.3 hPa | 0 mm | - | 0 W/m² | - |
* Rain latest hour (hover to see other rain measurements)
** Current wind speed in m/s (hover to see current wind gust speed)